This demonstration page uses our WeatherBlox Daily Observations layout. Learn more.

Left ArrowRight Arrow

41.86663, -103.66717

Hourly Observations for November 26, 2022

Temp ( °F °C ) Dew Point ( °F °C ) Humidity (%) Winds ( mph kmh ) Pressure ( in mb ) Visibility ( mi km ) Precip ( " mm )
12:53 am 00:53 Clear 27 -2.8 16 -8.9 63 63 NNW 3 6 29.94 1014 10 16 0.00 0.00
1:53 am 01:53 Clear 23 -5 13 -10.6 65 65 N 6 9 29.91 1013 10 16 0.00 0.00
2:53 am 02:53 Clear 24 -4.4 15 -9.4 68 68 NNE 5 7 29.87 1012 10 16 0.00 0.00
3:53 am 03:53 Clear 21 -6.1 13 -10.6 70 70 ESE 5 7 29.88 1012 10 16 0.00 0.00
4:53 am 04:53 Clear 23 -5 14 -10 68 68 E 5 7 29.89 1012 10 16 0.00 0.00
5:53 am 05:53 Clear 24 -4.4 16 -8.9 71 71 NE 6 9 29.91 1013 10 16 0.00 0.00
6:53 am 06:53 Clear 23 -5 15 -9.4 71 71 NNW 9 15 29.91 1013 10 16 0.00 0.00
7:53 am 07:53 Sunny 32 0 19 -7.2 58 58 WNW 8 13 29.92 1013 10 16 0.00 0.00
8:53 am 08:53 Sunny 41 5 20 -6.7 42 42 W 7 11 29.93 1013 10 16 0.00 0.00
9:53 am 09:53 Sunny 50 10 21 -6.1 32 32 WNW 12 19 29.93 1014 10 16 0.00 0.00
10:53 am 10:53 Sunny 60 15.6 21 -6.1 22 22 N 16 26 29.89 1012 10 16 0.00 0.00
11:53 am 11:53 Sunny 60 15.6 21 -6.1 22 22 N 12 19 29.88 1012 10 16 0.00 0.00
12:53 pm 12:53 Sunny 59 15 22 -5.6 24 24 N 20 31 29.86 1011 10 16 0.00 0.00
1:53 pm 13:53 Sunny 58 14.4 22 -5.6 25 25 N 17 28 29.88 1012 10 16 0.00 0.00
2:53 pm 14:53 Sunny 53 11.7 22 -5.6 29 29 N 15 24 29.91 1013 10 16 0.00 0.00
3:53 pm 15:53 Sunny 50 10 24 -4.4 36 36 NNE 15 24 29.94 1014 10 16 0.00 0.00
4:53 pm 16:53 Clear 45 7.2 24 -4.4 43 43 NNE 10 17 29.98 1015 10 16 0.00 0.00
5:53 pm 17:53 Clear 44 6.7 27 -2.8 51 51 NNE 21 33 30.00 1016 10 16 0.00 0.00
6:53 pm 18:53 Cloudy 41 5 27 -2.8 57 57 NNE 17 28 30.04 1017 10 16 0.00 0.00
7:53 pm 19:53 Cloudy 37 2.8 30 -1.1 75 75 N 9 15 30.05 1018 10 16 0.01 0.13
8:08 pm 20:08 Cloudy 37 2.8 30 -1.1 75 75 NNE 7 11 30.07 1018 10 16 0.00 0.00
8:53 pm 20:53 Cloudy with Light Snow 35 1.7 31 -0.6 85 85 N 6 9 30.04 1017 4 6 0.01 0.25
9:15 pm 21:15 Cloudy with Light Snow 34 1.1 31 -0.6 88 88 N 5 7 30.10 1019 3 4 0.01 0.25
9:27 pm 21:27 Cloudy with Light Snow 34 1.1 31 -0.6 88 88 Calm 30.10 1019 2 3 0.01 0.25
9:43 pm 21:43 Cloudy with Light Snow 34 1.1 31 -0.6 88 88 Calm 30.10 1019 3 5 0.01 0.25
9:53 pm 21:53 Cloudy with Light Snow 34 1.1 31 -0.6 88 88 Calm 30.02 1017 4 6 0.01 0.25
10:53 pm 22:53 Cloudy with Light Snow 34 1.1 31 -0.6 88 88 Calm 29.99 1016 9 14 0.01 0.25
11:36 pm 23:36 Cloudy with Light Snow 33 0.6 31 -0.6 92 92 NW 5 7 30.10 1019 4 6 0.01 0.13
11:48 pm 23:48 Cloudy with Light Snow 34 1 30 -1 86 86 WNW 3 6 30.10 1019 5 8 0.01 0.13
11:53 pm 23:53 Cloudy with Light Snow 33 0.6 31 -0.6 92 92 WNW 3 6 29.98 1015 6 10 0.01 0.13

Powered by AerisWeather